| time (UTC) | temp F | wind direction | speed knots | gust knots | rain 1hr in | rain 24hr in | rain mn in | humidity % | barometer mb |
| 20260503185505 | 67 | 261 | 11.3 | 17.4 | 0.00 | 0.00 | 0.00 | 30 | 1008.3 |
| 20260503185005 | 66 | 297 | 11.3 | 17.4 | 0.00 | 0.00 | 0.00 | 29 | 1008.5 |
| 20260503184505 | 66 | 304 | 10.4 | 17.4 | 0.00 | 0.00 | 0.00 | 28 | 1008.6 |
| 20260503183505 | 66 | 289 | 8.7 | 17.4 | 0.00 | 0.00 | 0.00 | 31 | 1008.6 |
| 20260503183005 | 67 | 253 | 13.0 | 18.2 | 0.00 | 0.00 | 0.00 | 31 | 1008.6 |
| 20260503182505 | 66 | 249 | 13.9 | 19.1 | 0.00 | 0.00 | 0.00 | 30 | 1008.7 |
| 20260503182006 | 66 | 290 | 8.7 | 19.1 | 0.00 | 0.00 | 0.00 | 31 | 1008.7 |
| 20260503181505 | 66 | 276 | 12.2 | 18.2 | 0.00 | 0.00 | 0.00 | 30 | 1008.9 |
| 20260503181005 | 66 | 274 | 11.3 | 20.9 | 0.00 | 0.00 | 0.00 | 30 | 1008.9 |
| 20260503180005 | 66 | 292 | 12.2 | 20.0 | 0.00 | 0.00 | 0.00 | 31 | 1009.0 |
| 20260503175505 | 65 | 313 | 11.3 | 20.0 | 0.00 | 0.00 | 0.00 | 31 | 1009.1 |
| 20260503174505 | 64 | 266 | 7.8 | 15.6 | 0.00 | 0.00 | 0.00 | 34 | 1009.2 |
| 20260503174006 | 64 | 251 | 9.6 | 17.4 | 0.00 | 0.00 | 0.00 | 34 | 1009.3 |
| 20260503173505 | 65 | 295 | 11.3 | 17.4 | 0.00 | 0.00 | 0.00 | 33 | 1009.4 |
| 20260503173005 | 64 | 269 | 10.4 | 17.4 | 0.00 | 0.00 | 0.00 | 36 | 1009.3 |
| 20260503172505 | 64 | 274 | 11.3 | 17.4 | 0.00 | 0.00 | 0.00 | 35 | 1009.4 |
| 20260503172005 | 64 | 261 | 10.4 | 14.8 | 0.00 | 0.00 | 0.00 | 36 | 1009.4 |
| 20260503171504 | 63 | 279 | 11.3 | 14.8 | 0.00 | 0.00 | 0.00 | 35 | 1009.5 |
| 20260503171005 | 63 | 266 | 10.4 | 15.6 | 0.00 | 0.00 | 0.00 | 37 | 1009.5 |
| 20260503131005 | 46 | 234 | 4.3 | 5.2 | 0.00 | 0.00 | 0.00 | 67 | 1011.3 |
| 20260503081505 | 48 | 219 | 0.0 | 0.0 | 0.00 | 0.00 | 0.00 | 64 | 1011.0 |
| 20260503081005 | 48 | 220 | 0.0 | 0.0 | 0.00 | 0.00 | 0.00 | 63 | 1011.1 |
| 20260503072504 | 50 | 124 | 7.8 | 11.3 | 0.00 | 0.00 | 0.00 | 57 | 1011.1 |
| 20260503071505 | 50 | 134 | 8.7 | 10.4 | 0.00 | 0.00 | 0.00 | 58 | 1011.1 |
| 20260503071005 | 50 | 136 | 8.7 | 10.4 | 0.00 | 0.00 | 0.00 | 58 | 1011.0 |
| 20260503055004 | 48 | 145 | 5.2 | 6.1 | 0.00 | 0.00 | 0.00 | 61 | 1012.0 |
| 20260503054504 | 49 | 132 | 3.5 | 6.1 | 0.00 | 0.00 | 0.00 | 59 | 1012.0 |
| 20260503054004 | 50 | 95 | 2.6 | 5.2 | 0.00 | 0.00 | 0.00 | 58 | 1012.0 |
| 20260503053505 | 50 | 94 | 3.5 | 5.2 | 0.00 | 0.00 | 0.00 | 59 | 1012.0 |
| 20260503053004 | 49 | 94 | 4.3 | 5.2 | 0.00 | 0.00 | 0.00 | 60 | 1012.0 |
| 20260503052504 | 49 | 98 | 2.6 | 5.2 | 0.00 | 0.00 | 0.00 | 60 | 1012.0 |
| 20260503052005 | 49 | 99 | 3.5 | 6.1 | 0.00 | 0.00 | 0.00 | 60 | 1012.0 |
| 20260503051504 | 49 | 99 | 5.2 | 6.1 | 0.00 | 0.00 | 0.00 | 60 | 1012.0 |
| 20260503051004 | 49 | 100 | 5.2 | 7.0 | 0.00 | 0.00 | 0.00 | 60 | 1012.0 |
| 20260503045504 | 49 | 100 | 6.1 | 7.8 | 0.00 | 0.00 | 0.00 | 61 | 1012.1 |
| 20260503045004 | 49 | 107 | 5.2 | 7.8 | 0.00 | 0.00 | 0.00 | 60 | 1012.1 |
| 20260503044504 | 49 | 119 | 5.2 | 6.1 | 0.00 | 0.00 | 0.00 | 59 | 1012.2 |
| 20260503044005 | 49 | 128 | 4.3 | 6.1 | 0.00 | 0.00 | 0.00 | 59 | 1012.1 |
| 20260503043504 | 49 | 137 | 4.3 | 6.1 | 0.00 | 0.00 | 0.00 | 60 | 1012.1 |
| 20260503042504 | 49 | 127 | 4.3 | 5.2 | 0.00 | 0.00 | 0.00 | 59 | 1012.2 |
| 20260503042004 | 49 | 97 | 0.9 | 2.6 | 0.00 | 0.00 | 0.00 | 59 | 1012.1 |
| 20260503041504 | 50 | 97 | 0.9 | 2.6 | 0.00 | 0.00 | 0.00 | 58 | 1012.0 |
| 20260503041004 | 50 | 97 | 1.7 | 2.6 | 0.00 | 0.00 | 0.00 | 58 | 1012.0 |
| 20260503040004 | 50 | 97 | 3.5 | 5.2 | 0.00 | 0.00 | 0.00 | 58 | 1011.9 |
| 20260503035504 | 51 | 97 | 2.6 | 6.1 | 0.00 | 0.00 | 0.00 | 57 | 1011.8 |
| 20260503035004 | 51 | 96 | 5.2 | 6.1 | 0.00 | 0.00 | 0.00 | 56 | 1011.7 |
| 20260503034504 | 51 | 96 | 5.2 | 6.1 | 0.00 | 0.00 | 0.00 | 55 | 1011.5 |
| 20260503034004 | 52 | 91 | 2.6 | 5.2 | 0.00 | 0.00 | 0.00 | 54 | 1011.6 |
| 20260503033505 | 52 | 91 | 4.3 | 6.1 | 0.00 | 0.00 | 0.00 | 54 | 1011.6 |
| 20260503032504 | 52 | 91 | 3.5 | 6.1 | 0.00 | 0.00 | 0.00 | 54 | 1011.4 |
| 20260503031504 | 53 | 89 | 5.2 | 6.1 | 0.00 | 0.00 | 0.00 | 53 | 1011.2 |
| 20260503030004 | 53 | 87 | 3.5 | 6.1 | 0.00 | 0.00 | 0.00 | 52 | 1011.1 |
| 20260503025505 | 53 | 87 | 3.5 | 6.1 | 0.00 | 0.00 | 0.00 | 52 | 1011.1 |
| 20260503025004 | 53 | 88 | 4.3 | 6.1 | 0.00 | 0.00 | 0.00 | 52 | 1010.9 |
| 20260503024504 | 54 | 89 | 4.3 | 7.0 | 0.00 | 0.00 | 0.00 | 51 | 1010.8 |
| 20260503023504 | 56 | 69 | 5.2 | 7.0 | 0.00 | 0.00 | 0.00 | 48 | 1010.8 |
| 20260503023004 | 56 | 69 | 4.3 | 7.0 | 0.00 | 0.00 | 0.00 | 48 | 1010.7 |
| 20260503021504 | 57 | 85 | 4.3 | 6.1 | 0.00 | 0.00 | 0.00 | 47 | 1010.5 |
| 20260503020004 | 58 | 79 | 6.1 | 7.8 | 0.00 | 0.00 | 0.00 | 46 | 1010.4 |
| 20260503015504 | 58 | 84 | 4.3 | 7.0 | 0.00 | 0.00 | 0.00 | 45 | 1010.5 |
| 20260503015004 | 59 | 76 | 4.3 | 7.8 | 0.00 | 0.00 | 0.00 | 45 | 1010.4 |
| 20260503014504 | 59 | 84 | 4.3 | 10.4 | 0.00 | 0.00 | 0.00 | 45 | 1010.4 |
| 20260503013504 | 60 | 80 | 7.0 | 10.4 | 0.00 | 0.00 | 0.00 | 42 | 1010.3 |
| 20260503013005 | 60 | 76 | 5.2 | 10.4 | 0.00 | 0.00 | 0.00 | 42 | 1010.3 |
| 20260503012004 | 61 | 56 | 6.1 | 10.4 | 0.00 | 0.00 | 0.00 | 41 | 1010.2 |
| 20260503011504 | 61 | 54 | 6.1 | 10.4 | 0.00 | 0.00 | 0.00 | 40 | 1010.1 |
| 20260503011004 | 61 | 52 | 6.1 | 12.2 | 0.00 | 0.00 | 0.00 | 40 | 1010.0 |
| 20260503010004 | 62 | 58 | 8.7 | 13.0 | 0.00 | 0.00 | 0.00 | 39 | 1010.0 |
| 20260503005504 | 62 | 56 | 9.6 | 14.8 | 0.00 | 0.00 | 0.00 | 38 | 1010.0 |
| 20260503005004 | 63 | 53 | 10.4 | 14.8 | 0.00 | 0.00 | 0.00 | 38 | 1009.9 |
| 20260503004504 | 63 | 52 | 7.0 | 11.3 | 0.00 | 0.00 | 0.00 | 38 | 1009.9 |
| 20260503004004 | 64 | 50 | 7.8 | 11.3 | 0.00 | 0.00 | 0.00 | 37 | 1010.0 |
| 20260503003504 | 64 | 31 | 6.1 | 11.3 | 0.00 | 0.00 | 0.00 | 36 | 1010.1 |
| 20260503003005 | 64 | 32 | 6.1 | 10.4 | 0.00 | 0.00 | 0.00 | 36 | 1010.0 |
| 20260503002504 | 64 | 30 | 5.2 | 10.4 | 0.00 | 0.00 | 0.00 | 37 | 1010.0 |
| 20260503002004 | 64 | 48 | 5.2 | 10.4 | 0.00 | 0.00 | 0.00 | 35 | 1009.9 |
| 20260503001504 | 64 | 46 | 6.1 | 11.3 | 0.00 | 0.00 | 0.00 | 35 | 1009.9 |
| 20260503001004 | 65 | 34 | 6.1 | 11.3 | 0.00 | 0.00 | 0.00 | 35 | 1009.9 |
| 20260503000004 | 65 | 25 | 7.8 | 12.2 | 0.00 | 0.00 | 0.00 | 35 | 1009.9 |
| 20260502235504 | 65 | 27 | 7.8 | 13.0 | 0.00 | 0.00 | 0.00 | 35 | 1009.9 |
| 20260502235004 | 65 | 37 | 9.6 | 13.0 | 0.00 | 0.00 | 0.00 | 35 | 1009.9 |
| 20260502233505 | 65 | 36 | 7.8 | 13.0 | 0.00 | 0.00 | 0.00 | 36 | 1009.8 |
| 20260502233005 | 65 | 34 | 9.6 | 17.4 | 0.00 | 0.00 | 0.00 | 34 | 1009.8 |
| 20260502232504 | 65 | 29 | 10.4 | 17.4 | 0.00 | 0.00 | 0.00 | 34 | 1009.8 |
| 20260502232005 | 66 | 53 | 7.8 | 15.6 | 0.00 | 0.00 | 0.00 | 32 | 1009.8 |
| 20260502231506 | 66 | 83 | 7.8 | 11.3 | 0.00 | 0.00 | 0.00 | 32 | 1009.7 |
| 20260502231006 | 66 | 88 | 7.8 | 11.3 | 0.00 | 0.00 | 0.00 | 31 | 1009.6 |
| 20260502230005 | 67 | 88 | 7.8 | 11.3 | 0.00 | 0.00 | 0.00 | 31 | 1009.7 |
| 20260502225505 | 67 | 84 | 7.8 | 11.3 | 0.00 | 0.00 | 0.00 | 32 | 1009.8 |
| 20260502225005 | 67 | 87 | 7.0 | 17.4 | 0.00 | 0.00 | 0.00 | 32 | 1009.8 |
| 20260502224505 | 67 | 79 | 9.6 | 17.4 | 0.00 | 0.00 | 0.00 | 30 | 1009.9 |
| 20260502224005 | 67 | 86 | 10.4 | 17.4 | 0.00 | 0.00 | 0.00 | 29 | 1010.0 |
| 20260502223505 | 68 | 8 | 8.7 | 14.8 | 0.00 | 0.00 | 0.00 | 28 | 1010.0 |
| 20260502223005 | 69 | 319 | 6.1 | 10.4 | 0.00 | 0.00 | 0.00 | 21 | 1010.0 |
| 20260502222505 | 69 | 324 | 7.8 | 10.4 | 0.00 | 0.00 | 0.00 | 21 | 1010.0 |
| 20260502222005 | 69 | 310 | 6.1 | 12.2 | 0.00 | 0.00 | 0.00 | 23 | 1010.0 |
| 20260502221505 | 69 | 304 | 6.1 | 12.2 | 0.00 | 0.00 | 0.00 | 23 | 1010.0 |
| 20260502221005 | 68 | 299 | 4.3 | 10.4 | 0.00 | 0.00 | 0.00 | 22 | 1010.1 |
| 20260502215505 | 68 | 294 | 6.1 | 12.2 | 0.00 | 0.00 | 0.00 | 23 | 1010.3 |
| 20260502214505 | 68 | 298 | 7.8 | 11.3 | 0.00 | 0.00 | 0.00 | 22 | 1010.4 |
| 20260502213505 | 68 | 314 | 7.0 | 11.3 | 0.00 | 0.00 | 0.00 | 22 | 1010.6 |
| 20260502213005 | 68 | 301 | 6.1 | 11.3 | 0.00 | 0.00 | 0.00 | 23 | 1010.6 |
| 20260502212505 | 68 | 293 | 6.1 | 10.4 | 0.00 | 0.00 | 0.00 | 22 | 1010.6 |
| 20260502212005 | 68 | 301 | 5.2 | 10.4 | 0.00 | 0.00 | 0.00 | 21 | 1010.6 |
| 20260502211505 | 68 | 284 | 6.1 | 11.3 | 0.00 | 0.00 | 0.00 | 22 | 1010.7 |
| 20260502211005 | 68 | 290 | 6.1 | 11.3 | 0.00 | 0.00 | 0.00 | 21 | 1010.7 |
| 20260502210005 | 68 | 300 | 5.2 | 11.3 | 0.00 | 0.00 | 0.00 | 22 | 1010.8 |
| 20260502205505 | 69 | 267 | 7.0 | 13.0 | 0.00 | 0.00 | 0.00 | 22 | 1010.8 |
| 20260502205005 | 68 | 287 | 7.8 | 14.8 | 0.00 | 0.00 | 0.00 | 21 | 1010.9 |
| 20260502204505 | 69 | 287 | 10.4 | 14.8 | 0.00 | 0.00 | 0.00 | 19 | 1010.9 |
| 20260502204005 | 69 | 290 | 9.6 | 13.0 | 0.00 | 0.00 | 0.00 | 20 | 1010.9 |
| 20260502203505 | 69 | 305 | 8.7 | 14.8 | 0.00 | 0.00 | 0.00 | 20 | 1010.9 |
| 20260502203005 | 69 | 285 | 9.6 | 14.8 | 0.00 | 0.00 | 0.00 | 20 | 1011.0 |
| 20260502202005 | 69 | 284 | 7.8 | 17.4 | 0.00 | 0.00 | 0.00 | 21 | 1011.1 |
| 20260502201505 | 69 | 271 | 8.7 | 17.4 | 0.00 | 0.00 | 0.00 | 20 | 1011.1 |
| 20260502201005 | 69 | 280 | 10.4 | 14.8 | 0.00 | 0.00 | 0.00 | 19 | 1011.3 |
| 20260502195505 | 69 | 285 | 8.7 | 14.8 | 0.00 | 0.00 | 0.00 | 21 | 1011.4 |
| 20260502195005 | 69 | 273 | 8.7 | 15.6 | 0.00 | 0.00 | 0.00 | 20 | 1011.5 |
| 20260502194505 | 69 | 242 | 10.4 | 15.6 | 0.00 | 0.00 | 0.00 | 19 | 1011.5 |
| 20260502194005 | 69 | 244 | 8.7 | 13.9 | 0.00 | 0.00 | 0.00 | 20 | 1011.6 |
| 20260502193504 | 69 | 247 | 7.8 | 11.3 | 0.00 | 0.00 | 0.00 | 21 | 1011.6 |
| 20260502193005 | 70 | 277 | 5.2 | 17.4 | 0.00 | 0.00 | 0.00 | 19 | 1011.8 |
| 20260502192005 | 69 | 252 | 7.0 | 13.0 | 0.00 | 0.00 | 0.00 | 19 | 1012.0 |
| 20260502191505 | 69 | 292 | 7.0 | 13.0 | 0.00 | 0.00 | 0.00 | 20 | 1012.0 |